Location: Tel Aviv
(32.0670°N, 34.7670°E)
Time: 05:07:02
(UTC+03:00)

Vanguard 2 - Pass Details

Date: 01 February 2022
Orbit: 552 x 2935 km, 32.9° (Epoch: 25 May)

Event Time Altitude Azimuth Distance (km) Brightness Sun altitude
Rises 21:03:44 0° 279° (W) 3,977 11.9 -48.6°
Reaches altitude 10° 21:06:01 10° 279° (W) 3,255 11.2 -49.1°
Enters shadow 21:09:34 33° 278° (W) 2,290 10.1 -49.8°
Maximum altitude 21:14:35 86° 192° (SSW) 1,806 - -50.9°
Drops below altitude 10° 21:29:10 10° 106° (ESE) 5,255 - -53.9°
Sets 21:33:53 0° 106° (ESE) 6,507 - -54.8°
